• în România
  • Lista ţărilor
  • Pe 7 zile
  • Temperatura apei
  • Hartă satelitară
  • Meteo pe hartă
  • Widget-uri
  • user-avatar
    Intrare

    Meteo pe oră la Linz

    Astăzi, 18 Ianuarie, Joi

    Timp Temperatura Precipitaţii Vânt Presiune Umiditate
    00:00 -2°C° 0,2 mm 6 m/s 728 mmHg 84%
    01:00 -1°C° 0 mm 5 m/s 729 mmHg 85%
    02:00 -1°C° 0,1 mm 4 m/s 729 mmHg 86%
    03:00 -1°C° 0,1 mm 4 m/s 729 mmHg 87%
    04:00 -2°C° 0,1 mm 4 m/s 730 mmHg 88%
    05:00 -1°C° 0,1 mm 4 m/s 729 mmHg 89%
    06:00 0°C° 0,1 mm 3 m/s 729 mmHg 89%
    07:00 0°C° 0 mm 3 m/s 729 mmHg 90%
    08:00 0°C° 0,4 mm 3 m/s 728 mmHg 89%
    09:00 +1°C° 0,4 mm 3 m/s 728 mmHg 88%
    10:00 0°C° 0,4 mm 4 m/s 727 mmHg 87%
    11:00 0°C° 0,5 mm 4 m/s 726 mmHg 87%
    12:00 +1°C° 0,5 mm 4 m/s 725 mmHg 87%
    13:00 +1°C° 0,5 mm 4 m/s 724 mmHg 87%
    14:00 +3°C° 0,3 mm 4 m/s 724 mmHg 86%
    15:00 +3°C° 0,3 mm 4 m/s 723 mmHg 86%
    16:00 +4°C° 0,3 mm 4 m/s 722 mmHg 85%
    17:00 +4°C° 0,5 mm 4 m/s 723 mmHg 85%
    18:00 +3°C° 0,5 mm 5 m/s 723 mmHg 85%
    19:00 +3°C° 0,5 mm 5 m/s 723 mmHg 85%
    20:00 +3°C° 1,2 mm 5 m/s 723 mmHg 86%
    21:00 +3°C° 1,2 mm 4 m/s 724 mmHg 87%
    22:00 +3°C° 1,2 mm 4 m/s 724 mmHg 88%
    23:00 +3°C° 0,9 mm 4 m/s 724 mmHg 89%

    Mâine, 19 Ianuarie, Vineri

    Timp Temperatura Precipitaţii Vânt Presiune Umiditate
    00:00 +3°C° 0,9 mm 4 m/s 725 mmHg 90%
    01:00 +2°C° 0,9 mm 3 m/s 725 mmHg 91%
    02:00 +2°C° 1,2 mm 3 m/s 725 mmHg 92%
    03:00 +2°C° 1,2 mm 3 m/s 725 mmHg 93%
    04:00 +3°C° 1,2 mm 2 m/s 725 mmHg 94%
    05:00 +3°C° 1,1 mm 2 m/s 725 mmHg 94%
    06:00 +3°C° 1,1 mm 2 m/s 725 mmHg 94%
    07:00 +3°C° 1,1 mm 2 m/s 725 mmHg 94%
    08:00 +3°C° 0,7 mm 2 m/s 726 mmHg 94%
    09:00 +2°C° 0,7 mm 3 m/s 727 mmHg 94%
    10:00 +2°C° 0,7 mm 3 m/s 727 mmHg 94%
    11:00 +3°C° 0,3 mm 4 m/s 727 mmHg 91%
    12:00 +3°C° 0,3 mm 4 m/s 728 mmHg 88%
    13:00 +3°C° 0,3 mm 4 m/s 728 mmHg 86%
    14:00 +1°C° 0,1 mm 4 m/s 728 mmHg 86%
    15:00 +1°C° 0,1 mm 4 m/s 729 mmHg 86%
    16:00 +2°C° 0,1 mm 3 m/s 729 mmHg 86%
    17:00 +1°C° 0,1 mm 3 m/s 729 mmHg 87%
    18:00 0°C° 0,1 mm 3 m/s 730 mmHg 89%
    19:00 -1°C° 0,1 mm 3 m/s 730 mmHg 90%
    20:00 -1°C° 0,1 mm 2 m/s 730 mmHg 91%
    21:00 -1°C° 0,1 mm 2 m/s 731 mmHg 92%
    22:00 -1°C° 0,1 mm 2 m/s 731 mmHg 93%
    23:00 -1°C° 0,1 mm 2 m/s 731 mmHg 93%

    Poimâine, 20 Ianuarie, Sâmbătă

    Timp Temperatura Precipitaţii Vânt Presiune Umiditate
    00:00 -1°C° 0,1 mm 2 m/s 731 mmHg 94%
    01:00 -1°C° 0,1 mm 2 m/s 731 mmHg 94%
    02:00 -1°C° 0,2 mm 2 m/s 731 mmHg 93%
    03:00 -1°C° 0,2 mm 2 m/s 731 mmHg 92%
    04:00 -1°C° 0,2 mm 2 m/s 731 mmHg 92%
    05:00 -1°C° 0,5 mm 2 m/s 731 mmHg 92%
    06:00 -1°C° 0,5 mm 3 m/s 730 mmHg 93%
    07:00 -1°C° 0,5 mm 3 m/s 730 mmHg 94%
    08:00 0°C° 0,4 mm 3 m/s 730 mmHg 92%
    09:00 0°C° 0,4 mm 3 m/s 730 mmHg 90%
    10:00 -1°C° 0,4 mm 4 m/s 730 mmHg 88%
    11:00 +1°C° 0,3 mm 3 m/s 729 mmHg 88%
    12:00 +1°C° 0,3 mm 3 m/s 728 mmHg 87%
    13:00 +2°C° 0,3 mm 3 m/s 727 mmHg 87%
    14:00 +2°C° 0,4 mm 3 m/s 727 mmHg 87%
    15:00 +2°C° 0,4 mm 2 m/s 726 mmHg 88%
    16:00 +2°C° 0,4 mm 2 m/s 725 mmHg 88%
    17:00 +3°C° 0,2 mm 1 m/s 725 mmHg 89%
    18:00 +2°C° 0,2 mm 1 m/s 725 mmHg 90%
    19:00 +2°C° 0,2 mm 1 m/s 724 mmHg 91%
    20:00 +2°C° 0,5 mm 1 m/s 724 mmHg 92%
    21:00 +1°C° 0,5 mm 1 m/s 724 mmHg 92%
    22:00 0°C° 0,5 mm 0 m/s 724 mmHg 93%
    23:00 +1°C° 1,2 mm 1 m/s 725 mmHg 94%

    21 Ianuarie, Duminică

    Timp Temperatura Precipitaţii Vânt Presiune Umiditate
    00:00 +1°C° 1,2 mm 2 m/s 725 mmHg 95%
    01:00 +1°C° 1,2 mm 2 m/s 726 mmHg 96%
    02:00 -1°C° 0,8 mm 3 m/s 727 mmHg 95%
    03:00 -2°C° 0,8 mm 4 m/s 728 mmHg 94%
    04:00 -3°C° 0,8 mm 4 m/s 729 mmHg 92%
    05:00 -3°C° 0,2 mm 4 m/s 730 mmHg 93%
    06:00 -4°C° 0,2 mm 3 m/s 731 mmHg 94%
    07:00 -4°C° 0,2 mm 3 m/s 732 mmHg 94%
    08:00 -4°C° 0,2 mm 3 m/s 732 mmHg 94%
    09:00 -2°C° 0,2 mm 3 m/s 733 mmHg 93%
    10:00 -1°C° 0,2 mm 3 m/s 734 mmHg 92%
    11:00 -2°C° 0,2 mm 4 m/s 734 mmHg 90%
    12:00 -2°C° 0,2 mm 4 m/s 734 mmHg 89%
    13:00 -1°C° 0,2 mm 4 m/s 735 mmHg 88%
    14:00 -2°C° 0,1 mm 4 m/s 735 mmHg 88%
    15:00 -1°C° 0,1 mm 3 m/s 735 mmHg 88%
    16:00 -1°C° 0,1 mm 3 m/s 735 mmHg 88%
    17:00 -3°C° 0 mm 2 m/s 736 mmHg 90%
    18:00 -4°C° 0 mm 2 m/s 736 mmHg 91%
    19:00 -3°C° 0 mm 1 m/s 736 mmHg 92%
    20:00 -4°C° 0 mm 1 m/s 736 mmHg 91%
    21:00 -4°C° 0 mm 1 m/s 736 mmHg 91%
    22:00 -4°C° 0 mm 1 m/s 736 mmHg 90%
    23:00 -4°C° 0 mm 1 m/s 736 mmHg 89%

    22 Ianuarie, Luni

    Timp Temperatura Precipitaţii Vânt Presiune Umiditate
    00:00 -4°C° 0 mm 1 m/s 736 mmHg 88%
    01:00 -4°C° 0 mm 1 m/s 735 mmHg 88%
    02:00 -4°C° 0,1 mm 1 m/s 735 mmHg 89%
    03:00 -3°C° 0,1 mm 1 m/s 734 mmHg 89%
    04:00 -2°C° 0,1 mm 1 m/s 734 mmHg 90%
    05:00 -2°C° 0,5 mm 1 m/s 734 mmHg 91%
    06:00 -1°C° 0,5 mm 1 m/s 734 mmHg 92%
    07:00 -1°C° 0,5 mm 1 m/s 735 mmHg 93%
    08:00 0°C° 0,4 mm 1 m/s 735 mmHg 93%
    09:00 0°C° 0,4 mm 1 m/s 735 mmHg 93%
    10:00 +1°C° 0,4 mm 1 m/s 735 mmHg 93%
    11:00 +2°C° 0,1 mm 1 m/s 735 mmHg 94%
    12:00 +2°C° 0,1 mm 1 m/s 736 mmHg 95%
    13:00 +2°C° 0,1 mm 0 m/s 736 mmHg 96%
    14:00 +3°C° 0,1 mm 1 m/s 736 mmHg 97%
    15:00 +3°C° 0,1 mm 1 m/s 736 mmHg 98%
    16:00 +4°C° 0,1 mm 1 m/s 736 mmHg 98%
    17:00 +4°C° 0,3 mm 1 m/s 736 mmHg 98%
    18:00 +4°C° 0,3 mm 1 m/s 737 mmHg 98%
    19:00 +4°C° 0,3 mm 1 m/s 737 mmHg 98%
    20:00 +4°C° 0,3 mm 1 m/s 737 mmHg 98%
    21:00 +4°C° 0,3 mm 1 m/s 737 mmHg 98%
    22:00 +5°C° 0,3 mm 1 m/s 737 mmHg 99%
    23:00 +5°C° 0,2 mm 1 m/s 737 mmHg 99%

    23 Ianuarie, Marţi

    Timp Temperatura Precipitaţii Vânt Presiune Umiditate
    00:00 +5°C° 0,2 mm 1 m/s 737 mmHg 99%
    01:00 +5°C° 0,2 mm 1 m/s 737 mmHg 99%
    02:00 +5°C° 1,5 mm 1 m/s 737 mmHg 99%
    03:00 +4°C° 1,5 mm 2 m/s 737 mmHg 99%
    04:00 +4°C° 1,5 mm 2 m/s 737 mmHg 99%
    05:00 +5°C° 0,9 mm 2 m/s 738 mmHg 99%
    06:00 +5°C° 0,9 mm 2 m/s 738 mmHg 99%
    07:00 +4°C° 0,9 mm 3 m/s 738 mmHg 99%
    08:00 +4°C° 0,2 mm 3 m/s 738 mmHg 99%
    09:00 +4°C° 0,2 mm 3 m/s 739 mmHg 99%
    10:00 +5°C° 0,2 mm 3 m/s 739 mmHg 99%
    11:00 +5°C° 0,5 mm 3 m/s 739 mmHg 99%
    12:00 +5°C° 0,5 mm 3 m/s 739 mmHg 99%
    13:00 +5°C° 0,5 mm 3 m/s 739 mmHg 99%
    14:00 +5°C° 0,2 mm 3 m/s 739 mmHg 98%
    15:00 +5°C° 0,2 mm 3 m/s 740 mmHg 98%
    16:00 +5°C° 0,2 mm 3 m/s 740 mmHg 98%
    17:00 +5°C° 0 mm 3 m/s 740 mmHg 97%
    18:00 +5°C° 0 mm 3 m/s 741 mmHg 97%
    19:00 +5°C° 0 mm 3 m/s 741 mmHg 96%
    20:00 +5°C° 0 mm 3 m/s 741 mmHg 96%
    21:00 +5°C° 0 mm 3 m/s 741 mmHg 96%
    22:00 +5°C° 0 mm 3 m/s 742 mmHg 96%
    23:00 +5°C° 0 mm 2 m/s 742 mmHg 96%
    Arată mai mult